owner,sensor,date,latitude,longitude,vertical_datum,sea_water_practical_salinity,qcFlag 
DISL,ioos:station:DISL:MHPA:1,2009-08-01T00:00:00Z,30.6671,-87.9365,2.772,2.26,1111122 
DISL,ioos:station:DISL:MHPA:1,2009-08-01T00:30:00Z,30.6671,-87.9365,2.691,2.06,1111122 
DISL,ioos:station:DISL:MHPA:1,2009-08-01T01:00:00Z,30.6671,-87.9365,2.567,2.07,1111122 
DISL,ioos:station:DISL:MHPA:1,2009-08-01T01:30:00Z,30.6671,-87.9365,2.464,2.13,1111122 
DISL,ioos:station:DISL:MHPA:1,2009-08-01T02:00:00Z,30.6671,-87.9365,2.42,2.18,1111122 
DISL,ioos:station:DISL:MHPA:1,2009-08-01T02:30:00Z,30.6671,-87.9365,2.362,2.23,1111122 
DISL,ioos:station:DISL:MHPA:1,2009-08-01T03:00:00Z,30.6671,-87.9365,2.279,2.21,1111122 
DISL,ioos:station:DISL:MHPA:1,2009-08-01T03:30:00Z,30.6671,-87.9365,2.287,2.19,1111122 
DISL,ioos:station:DISL:MHPA:1,2009-08-01T04:00:00Z,30.6671,-87.9365,2.434,2.15,1111122 
DISL,ioos:station:DISL:MHPA:1,2009-08-01T04:30:00Z,30.6671,-87.9365,2.612,2.16,1111122 
DISL,ioos:station:DISL:MHPA:1,2009-08-01T05:00:00Z,30.6671,-87.9365,2.728,2.18,1111122 
DISL,ioos:station:DISL:MHPA:1,2009-08-01T05:30:00Z,30.6671,-87.9365,2.938,2.17,1111122 
DISL,ioos:station:DISL:MHPA:1,2009-08-01T06:00:00Z,30.6671,-87.9365,3.138,2.2,1111122 
DISL,ioos:station:DISL:MHPA:1,2009-08-01T06:30:00Z,30.6671,-87.9365,3.229,2.2,1111122 
DISL,ioos:station:DISL:MHPA:1,2009-08-01T07:00:00Z,30.6671,-87.9365,3.377,2.21,1111122 
DISL,ioos:station:DISL:MHPA:1,2009-08-01T07:30:00Z,30.6671,-87.9365,3.541,2.21,1111122 
DISL,ioos:station:DISL:MHPA:1,2009-08-01T08:00:00Z,30.6671,-87.9365,3.652,2.25,1111122 
DISL,ioos:station:DISL:MHPA:1,2009-08-01T08:30:00Z,30.6671,-87.9365,3.724,2.24,1111122 
DISL,ioos:station:DISL:MHPA:1,2009-08-01T09:00:00Z,30.6671,-87.9365,3.782,2.22,1111122 
DISL,ioos:station:DISL:MHPA:1,2009-08-01T09:30:00Z,30.6671,-87.9365,3.909,2.23,1111122 
DISL,ioos:station:DISL:MHPA:1,2009-08-01T10:00:00Z,30.6671,-87.9365,4.041,2.23,1111122 
DISL,ioos:station:DISL:MHPA:1,2009-08-01T10:30:00Z,30.6671,-87.9365,4.16,2.24,1111122 
DISL,ioos:station:DISL:MHPA:1,2009-08-01T11:00:00Z,30.6671,-87.9365,4.266,2.11,1111122 
DISL,ioos:station:DISL:MHPA:1,2009-08-01T11:30:00Z,30.6671,-87.9365,4.351,2.13,1111122 
DISL,ioos:station:DISL:MHPA:1,2009-08-01T12:00:00Z,30.6671,-87.9365,4.448,2.1,1111122 
DISL,ioos:station:DISL:MHPA:1,2009-08-01T12:30:00Z,30.6671,-87.9365,4.506,2.12,1111122 
DISL,ioos:station:DISL:MHPA:1,2009-08-01T13:00:00Z,30.6671,-87.9365,4.522,2.19,1111122 
DISL,ioos:station:DISL:MHPA:1,2009-08-01T13:30:00Z,30.6671,-87.9365,4.539,2.25,1111122 
DISL,ioos:station:DISL:MHPA:1,2009-08-01T14:00:00Z,30.6671,-87.9365,4.56,2.29,1111122 
DISL,ioos:station:DISL:MHPA:1,2009-08-01T14:30:00Z,30.6671,-87.9365,4.479,2.32,1111122 
DISL,ioos:station:DISL:MHPA:1,2009-08-01T15:00:00Z,30.6671,-87.9365,4.828,2.09,1111122 
DISL,ioos:station:DISL:MHPA:1,2009-08-01T15:30:00Z,30.6671,-87.9365,5.008,2.11,1111122 
DISL,ioos:station:DISL:MHPA:1,2009-08-01T16:00:00Z,30.6671,-87.9365,4.342,1.9,1111122 
DISL,ioos:station:DISL:MHPA:1,2009-08-01T16:30:00Z,30.6671,-87.9365,4.308,2.0,1111122 
DISL,ioos:station:DISL:MHPA:1,2009-08-01T17:00:00Z,30.6671,-87.9365,4.306,2.12,1111122 
DISL,ioos:station:DISL:MHPA:1,2009-08-01T17:30:00Z,30.6671,-87.9365,4.134,2.08,1111122 
DISL,ioos:station:DISL:MHPA:1,2009-08-01T18:00:00Z,30.6671,-87.9365,4.004,2.0,1111122 
DISL,ioos:station:DISL:MHPA:1,2009-08-01T18:30:00Z,30.6671,-87.9365,3.821,1.93,1111122 
DISL,ioos:station:DISL:MHPA:1,2009-08-01T19:00:00Z,30.6671,-87.9365,3.69,1.84,1111122 
DISL,ioos:station:DISL:MHPA:1,2009-08-01T19:30:00Z,30.6671,-87.9365,3.644,1.7,1111122 
DISL,ioos:station:DISL:MHPA:1,2009-08-01T20:00:00Z,30.6671,-87.9365,3.628,1.7,1111122 
DISL,ioos:station:DISL:MHPA:1,2009-08-01T20:30:00Z,30.6671,-87.9365,3.399,1.69,1111122 
DISL,ioos:station:DISL:MHPA:1,2009-08-01T21:00:00Z,30.6671,-87.9365,3.309,1.59,1111122 
DISL,ioos:station:DISL:MHPA:1,2009-08-01T21:30:00Z,30.6671,-87.9365,3.188,1.56,1111122 
DISL,ioos:station:DISL:MHPA:1,2009-08-01T22:00:00Z,30.6671,-87.9365,3.024,1.56,1111122 
DISL,ioos:station:DISL:MHPA:1,2009-08-01T22:30:00Z,30.6671,-87.9365,2.939,1.42,1111122 
DISL,ioos:station:DISL:MHPA:1,2009-08-01T23:00:00Z,30.6671,-87.9365,2.899,1.3,1111122 
DISL,ioos:station:DISL:MHPA:1,2009-08-01T23:30:00Z,30.6671,-87.9365,2.793,1.35,1111122 
DISL,ioos:station:DISL:MHPA:1,2009-08-02T00:00:00Z,30.6671,-87.9365,2.768,1.7,1111122 
DISL,ioos:station:DISL:MHPA:1,2009-08-02T00:30:00Z,30.6671,-87.9365,2.682,1.27,1111122 
DISL,ioos:station:DISL:MHPA:1,2009-08-02T01:00:00Z,30.6671,-87.9365,2.592,1.21,1111122 
DISL,ioos:station:DISL:MHPA:1,2009-08-02T01:30:00Z,30.6671,-87.9365,2.482,1.36,1111122 
DISL,ioos:station:DISL:MHPA:1,2009-08-02T02:00:00Z,30.6671,-87.9365,2.428,1.54,1111122 
DISL,ioos:station:DISL:MHPA:1,2009-08-02T02:30:00Z,30.6671,-87.9365,2.423,1.43,1111122 
DISL,ioos:station:DISL:MHPA:1,2009-08-02T03:00:00Z,30.6671,-87.9365,2.376,1.52,1111122 
DISL,ioos:station:DISL:MHPA:1,2009-08-02T03:30:00Z,30.6671,-87.9365,2.319,1.54,1111122 
DISL,ioos:station:DISL:MHPA:1,2009-08-02T04:00:00Z,30.6671,-87.9365,2.444,1.56,1111122 
DISL,ioos:station:DISL:MHPA:1,2009-08-02T04:30:00Z,30.6671,-87.9365,2.56,1.38,1111122 
DISL,ioos:station:DISL:MHPA:1,2009-08-02T05:00:00Z,30.6671,-87.9365,2.568,1.52,1111122 
DISL,ioos:station:DISL:MHPA:1,2009-08-02T05:30:00Z,30.6671,-87.9365,2.744,1.38,1111122 
DISL,ioos:station:DISL:MHPA:1,2009-08-02T06:00:00Z,30.6671,-87.9365,2.961,1.58,1111122 
DISL,ioos:station:DISL:MHPA:1,2009-08-02T06:30:00Z,30.6671,-87.9365,3.136,1.56,1111122 
DISL,ioos:station:DISL:MHPA:1,2009-08-02T07:00:00Z,30.6671,-87.9365,3.451,1.28,1111122 
DISL,ioos:station:DISL:MHPA:1,2009-08-02T07:30:00Z,30.6671,-87.9365,3.561,1.3,1111122 
DISL,ioos:station:DISL:MHPA:1,2009-08-02T08:00:00Z,30.6671,-87.9365,3.587,1.31,1111122 
DISL,ioos:station:DISL:MHPA:1,2009-08-02T08:30:00Z,30.6671,-87.9365,3.731,1.32,1111122 
DISL,ioos:station:DISL:MHPA:1,2009-08-02T09:00:00Z,30.6671,-87.9365,3.874,1.46,1111122 
DISL,ioos:station:DISL:MHPA:1,2009-08-02T09:30:00Z,30.6671,-87.9365,3.909,1.49,1111122 
DISL,ioos:station:DISL:MHPA:1,2009-08-02T10:00:00Z,30.6671,-87.9365,3.99,1.56,1111122 
DISL,ioos:station:DISL:MHPA:1,2009-08-02T10:30:00Z,30.6671,-87.9365,4.03,1.58,1111122 
DISL,ioos:station:DISL:MHPA:1,2009-08-02T11:00:00Z,30.6671,-87.9365,4.1,1.57,1111122 
DISL,ioos:station:DISL:MHPA:1,2009-08-02T11:30:00Z,30.6671,-87.9365,4.209,1.63,1111122 
DISL,ioos:station:DISL:MHPA:1,2009-08-02T12:00:00Z,30.6671,-87.9365,4.287,1.6,1111122 
DISL,ioos:station:DISL:MHPA:1,2009-08-02T12:30:00Z,30.6671,-87.9365,4.336,1.58,1111122 
DISL,ioos:station:DISL:MHPA:1,2009-08-02T13:00:00Z,30.6671,-87.9365,4.374,1.56,1111122 
DISL,ioos:station:DISL:MHPA:1,2009-08-02T13:30:00Z,30.6671,-87.9365,4.387,1.55,1111122 
DISL,ioos:station:DISL:MHPA:1,2009-08-02T14:00:00Z,30.6671,-87.9365,4.411,1.52,1111122 
DISL,ioos:station:DISL:MHPA:1,2009-08-02T14:30:00Z,30.6671,-87.9365,4.436,1.48,1111122 
DISL,ioos:station:DISL:MHPA:1,2009-08-02T15:00:00Z,30.6671,-87.9365,4.395,1.44,1111122 
DISL,ioos:station:DISL:MHPA:1,2009-08-02T15:30:00Z,30.6671,-87.9365,4.384,1.35,1111122 
DISL,ioos:station:DISL:MHPA:1,2009-08-02T16:00:00Z,30.6671,-87.9365,4.318,1.46,1111122 
DISL,ioos:station:DISL:MHPA:1,2009-08-02T16:30:00Z,30.6671,-87.9365,4.261,1.44,1111122 
DISL,ioos:station:DISL:MHPA:1,2009-08-02T17:00:00Z,30.6671,-87.9365,4.176,1.4,1111122 
DISL,ioos:station:DISL:MHPA:1,2009-08-02T17:30:00Z,30.6671,-87.9365,4.107,1.36,1111122 
DISL,ioos:station:DISL:MHPA:1,2009-08-02T18:00:00Z,30.6671,-87.9365,4.032,1.38,1111122 
DISL,ioos:station:DISL:MHPA:1,2009-08-02T18:30:00Z,30.6671,-87.9365,3.916,1.28,1111122 
DISL,ioos:station:DISL:MHPA:1,2009-08-02T19:00:00Z,30.6671,-87.9365,3.818,1.25,1111122 
DISL,ioos:station:DISL:MHPA:1,2009-08-02T19:30:00Z,30.6671,-87.9365,3.768,1.29,1111122 
DISL,ioos:station:DISL:MHPA:1,2009-08-02T20:00:00Z,30.6671,-87.9365,3.798,1.13,1111122 
DISL,ioos:station:DISL:MHPA:1,2009-08-02T20:30:00Z,30.6671,-87.9365,3.922,1.15,1111122 
DISL,ioos:station:DISL:MHPA:1,2009-08-02T21:00:00Z,30.6671,-87.9365,3.437,1.1,1111122 
DISL,ioos:station:DISL:MHPA:1,2009-08-02T21:30:00Z,30.6671,-87.9365,3.175,1.06,1111122 
DISL,ioos:station:DISL:MHPA:1,2009-08-02T22:00:00Z,30.6671,-87.9365,3.21,1.09,1111122 
DISL,ioos:station:DISL:MHPA:1,2009-08-02T22:30:00Z,30.6671,-87.9365,3.014,0.87,1111122 
DISL,ioos:station:DISL:MHPA:1,2009-08-02T23:00:00Z,30.6671,-87.9365,2.9,0.95,1111122 
DISL,ioos:station:DISL:MHPA:1,2009-08-02T23:30:00Z,30.6671,-87.9365,2.91,1.06,1111122 
DISL,ioos:station:DISL:MHPA:1,2009-08-03T00:00:00Z,30.6671,-87.9365,2.851,1.03,1111122 
DISL,ioos:station:DISL:MHPA:1,2009-08-03T00:30:00Z,30.6671,-87.9365,2.729,1.01,1111122 
DISL,ioos:station:DISL:MHPA:1,2009-08-03T01:00:00Z,30.6671,-87.9365,2.602,1.02,1111122 
DISL,ioos:station:DISL:MHPA:1,2009-08-03T01:30:00Z,30.6671,-87.9365,2.51,0.98,1111122 
DISL,ioos:station:DISL:MHPA:1,2009-08-03T02:00:00Z,30.6671,-87.9365,2.456,0.97,1111122 
DISL,ioos:station:DISL:MHPA:1,2009-08-03T02:30:00Z,30.6671,-87.9365,2.399,1.02,1111122 
DISL,ioos:station:DISL:MHPA:1,2009-08-03T03:00:00Z,30.6671,-87.9365,2.4,1.03,1111122 
DISL,ioos:station:DISL:MHPA:1,2009-08-03T03:30:00Z,30.6671,-87.9365,2.436,1.03,1111122 
DISL,ioos:station:DISL:MHPA:1,2009-08-03T04:00:00Z,30.6671,-87.9365,2.451,1.04,1111122 
DISL,ioos:station:DISL:MHPA:1,2009-08-03T04:30:00Z,30.6671,-87.9365,2.496,1.03,1111122 
DISL,ioos:station:DISL:MHPA:1,2009-08-03T05:00:00Z,30.6671,-87.9365,2.621,1.06,1111122 
DISL,ioos:station:DISL:MHPA:1,2009-08-03T05:30:00Z,30.6671,-87.9365,2.814,1.07,1111122 
DISL,ioos:station:DISL:MHPA:1,2009-08-03T06:00:00Z,30.6671,-87.9365,3.004,1.07,1111122 
DISL,ioos:station:DISL:MHPA:1,2009-08-03T06:30:00Z,30.6671,-87.9365,3.129,1.08,1111122 
DISL,ioos:station:DISL:MHPA:1,2009-08-03T07:00:00Z,30.6671,-87.9365,3.24,1.09,1111122 
DISL,ioos:station:DISL:MHPA:1,2009-08-03T07:30:00Z,30.6671,-87.9365,3.336,1.09,1111122 
DISL,ioos:station:DISL:MHPA:1,2009-08-03T08:00:00Z,30.6671,-87.9365,3.425,1.16,1111122 
DISL,ioos:station:DISL:MHPA:1,2009-08-03T08:30:00Z,30.6671,-87.9365,3.55,1.33,1111122 
DISL,ioos:station:DISL:MHPA:1,2009-08-03T09:00:00Z,30.6671,-87.9365,3.592,1.33,1111122 
DISL,ioos:station:DISL:MHPA:1,2009-08-03T09:30:00Z,30.6671,-87.9365,3.622,1.38,1111122 
DISL,ioos:station:DISL:MHPA:1,2009-08-03T10:00:00Z,30.6671,-87.9365,3.717,1.42,1111122 
DISL,ioos:station:DISL:MHPA:1,2009-08-03T10:30:00Z,30.6671,-87.9365,3.773,1.35,1111122 
DISL,ioos:station:DISL:MHPA:1,2009-08-03T11:00:00Z,30.6671,-87.9365,3.885,1.43,1111122 
DISL,ioos:station:DISL:MHPA:1,2009-08-03T11:30:00Z,30.6671,-87.9365,3.919,1.37,1111122 
DISL,ioos:station:DISL:MHPA:1,2009-08-03T12:00:00Z,30.6671,-87.9365,4.086,1.35,1111122 
DISL,ioos:station:DISL:MHPA:1,2009-08-03T12:30:00Z,30.6671,-87.9365,4.195,1.35,1111122 
DISL,ioos:station:DISL:MHPA:1,2009-08-03T13:00:00Z,30.6671,-87.9365,4.273,1.36,1111122 
DISL,ioos:station:DISL:MHPA:1,2009-08-03T13:30:00Z,30.6671,-87.9365,4.358,1.37,1111122 
DISL,ioos:station:DISL:MHPA:1,2009-08-03T14:00:00Z,30.6671,-87.9365,4.39,1.39,1111122 
DISL,ioos:station:DISL:MHPA:1,2009-08-03T14:30:00Z,30.6671,-87.9365,4.466,1.4,1111122 
DISL,ioos:station:DISL:MHPA:1,2009-08-03T15:00:00Z,30.6671,-87.9365,4.489,1.39,1111122 
DISL,ioos:station:DISL:MHPA:1,2009-08-03T15:30:00Z,30.6671,-87.9365,4.503,1.36,1111122 
DISL,ioos:station:DISL:MHPA:1,2009-08-03T16:00:00Z,30.6671,-87.9365,4.49,1.31,1111122 
DISL,ioos:station:DISL:MHPA:1,2009-08-03T16:30:00Z,30.6671,-87.9365,4.419,1.21,1111122 
DISL,ioos:station:DISL:MHPA:1,2009-08-03T17:00:00Z,30.6671,-87.9365,4.385,1.15,1111122 
DISL,ioos:station:DISL:MHPA:1,2009-08-03T17:30:00Z,30.6671,-87.9365,4.315,1.08,1111122 
DISL,ioos:station:DISL:MHPA:1,2009-08-03T18:00:00Z,30.6671,-87.9365,4.202,1.12,1111122 
DISL,ioos:station:DISL:MHPA:1,2009-08-03T18:30:00Z,30.6671,-87.9365,4.098,0.95,1111122 
DISL,ioos:station:DISL:MHPA:1,2009-08-03T19:00:00Z,30.6671,-87.9365,3.992,0.92,1111122 
DISL,ioos:station:DISL:MHPA:1,2009-08-03T19:30:00Z,30.6671,-87.9365,3.863,0.71,1111122 
DISL,ioos:station:DISL:MHPA:1,2009-08-03T20:00:00Z,30.6671,-87.9365,3.665,1.5,1111122 
DISL,ioos:station:DISL:MHPA:1,2009-08-03T20:30:00Z,30.6671,-87.9365,4.108,0.87,1111122 
DISL,ioos:station:DISL:MHPA:1,2009-08-03T21:00:00Z,30.6671,-87.9365,3.669,0.7,1111122 
DISL,ioos:station:DISL:MHPA:1,2009-08-03T21:30:00Z,30.6671,-87.9365,3.191,0.85,1111122 
DISL,ioos:station:DISL:MHPA:1,2009-08-03T22:00:00Z,30.6671,-87.9365,3.106,0.87,1111122 
DISL,ioos:station:DISL:MHPA:1,2009-08-03T22:30:00Z,30.6671,-87.9365,3.03,0.73,1111122 
DISL,ioos:station:DISL:MHPA:1,2009-08-03T23:00:00Z,30.6671,-87.9365,2.962,0.59,1111122 
DISL,ioos:station:DISL:MHPA:1,2009-08-03T23:30:00Z,30.6671,-87.9365,2.855,0.71,1111122 
DISL,ioos:station:DISL:MHPA:1,2009-08-04T00:00:00Z,30.6671,-87.9365,2.831,0.64,1111122 
DISL,ioos:station:DISL:MHPA:1,2009-08-04T00:30:00Z,30.6671,-87.9365,2.905,0.64,1111122 
DISL,ioos:station:DISL:MHPA:1,2009-08-04T01:00:00Z,30.6671,-87.9365,2.847,0.61,1111122 
DISL,ioos:station:DISL:MHPA:1,2009-08-04T01:30:00Z,30.6671,-87.9365,2.663,0.62,1111122 
DISL,ioos:station:DISL:MHPA:1,2009-08-04T02:00:00Z,30.6671,-87.9365,2.58,0.65,1111122 
DISL,ioos:station:DISL:MHPA:1,2009-08-04T02:30:00Z,30.6671,-87.9365,2.566,0.67,1111122 
DISL,ioos:station:DISL:MHPA:1,2009-08-04T03:00:00Z,30.6671,-87.9365,2.445,0.71,1111122 
DISL,ioos:station:DISL:MHPA:1,2009-08-04T03:30:00Z,30.6671,-87.9365,2.388,0.68,1111122 
DISL,ioos:station:DISL:MHPA:1,2009-08-04T04:00:00Z,30.6671,-87.9365,2.426,0.81,1111122 
DISL,ioos:station:DISL:MHPA:1,2009-08-04T04:30:00Z,30.6671,-87.9365,2.44,0.72,1111122 
DISL,ioos:station:DISL:MHPA:1,2009-08-04T05:00:00Z,30.6671,-87.9365,2.474,0.76,1111122 
DISL,ioos:station:DISL:MHPA:1,2009-08-04T05:30:00Z,30.6671,-87.9365,2.592,0.84,1111122 
DISL,ioos:station:DISL:MHPA:1,2009-08-04T06:00:00Z,30.6671,-87.9365,2.819,0.78,1111122 
DISL,ioos:station:DISL:MHPA:1,2009-08-04T06:30:00Z,30.6671,-87.9365,2.888,0.72,1111122 
DISL,ioos:station:DISL:MHPA:1,2009-08-04T07:00:00Z,30.6671,-87.9365,3.016,0.73,1111122 
DISL,ioos:station:DISL:MHPA:1,2009-08-04T07:30:00Z,30.6671,-87.9365,3.15,0.81,1111122 
DISL,ioos:station:DISL:MHPA:1,2009-08-04T08:00:00Z,30.6671,-87.9365,3.275,0.91,1111122 
DISL,ioos:station:DISL:MHPA:1,2009-08-04T08:30:00Z,30.6671,-87.9365,3.389,0.82,1111122 
DISL,ioos:station:DISL:MHPA:1,2009-08-04T09:00:00Z,30.6671,-87.9365,3.482,0.88,1111122 
DISL,ioos:station:DISL:MHPA:1,2009-08-04T09:30:00Z,30.6671,-87.9365,3.567,0.83,1111122 
DISL,ioos:station:DISL:MHPA:1,2009-08-04T10:00:00Z,30.6671,-87.9365,3.652,0.85,1111122 
DISL,ioos:station:DISL:MHPA:1,2009-08-04T10:30:00Z,30.6671,-87.9365,3.731,0.87,1111122 
DISL,ioos:station:DISL:MHPA:1,2009-08-04T11:00:00Z,30.6671,-87.9365,3.832,0.88,1111122 
DISL,ioos:station:DISL:MHPA:1,2009-08-04T11:30:00Z,30.6671,-87.9365,3.898,0.89,1111122 
DISL,ioos:station:DISL:MHPA:1,2009-08-04T12:00:00Z,30.6671,-87.9365,4.031,0.88,1111122 
DISL,ioos:station:DISL:MHPA:1,2009-08-04T12:30:00Z,30.6671,-87.9365,4.129,0.91,1111122 
DISL,ioos:station:DISL:MHPA:1,2009-08-04T13:00:00Z,30.6671,-87.9365,4.199,0.94,1111122 
DISL,ioos:station:DISL:MHPA:1,2009-08-04T13:30:00Z,30.6671,-87.9365,4.295,0.98,1111122 
DISL,ioos:station:DISL:MHPA:1,2009-08-04T14:00:00Z,30.6671,-87.9365,4.415,0.93,1111122 
DISL,ioos:station:DISL:MHPA:1,2009-08-04T14:30:00Z,30.6671,-87.9365,4.446,0.91,1111122 
DISL,ioos:station:DISL:MHPA:1,2009-08-04T15:00:00Z,30.6671,-87.9365,4.507,0.9,1111122 
DISL,ioos:station:DISL:MHPA:1,2009-08-04T15:30:00Z,30.6671,-87.9365,4.505,0.89,1111122 
DISL,ioos:station:DISL:MHPA:1,2009-08-04T16:00:00Z,30.6671,-87.9365,4.54,0.87,1111122 
DISL,ioos:station:DISL:MHPA:1,2009-08-04T16:30:00Z,30.6671,-87.9365,4.544,0.86,1111122 
DISL,ioos:station:DISL:MHPA:1,2009-08-04T17:00:00Z,30.6671,-87.9365,4.47,0.87,1111122 
DISL,ioos:station:DISL:MHPA:1,2009-08-04T17:30:00Z,30.6671,-87.9365,4.506,0.91,1111122 
DISL,ioos:station:DISL:MHPA:1,2009-08-04T18:00:00Z,30.6671,-87.9365,4.457,0.89,1111122 
DISL,ioos:station:DISL:MHPA:1,2009-08-04T18:30:00Z,30.6671,-87.9365,4.337,0.93,1111122 
DISL,ioos:station:DISL:MHPA:1,2009-08-04T19:00:00Z,30.6671,-87.9365,4.237,0.92,1111122 
DISL,ioos:station:DISL:MHPA:1,2009-08-04T19:30:00Z,30.6671,-87.9365,4.153,0.78,1111122 
DISL,ioos:station:DISL:MHPA:1,2009-08-04T20:00:00Z,30.6671,-87.9365,4.117,0.66,1111122 
DISL,ioos:station:DISL:MHPA:1,2009-08-04T20:30:00Z,30.6671,-87.9365,3.99,0.74,1111122 
DISL,ioos:station:DISL:MHPA:1,2009-08-04T21:00:00Z,30.6671,-87.9365,3.887,0.96,1111122 
DISL,ioos:station:DISL:MHPA:1,2009-08-04T21:30:00Z,30.6671,-87.9365,3.764,0.47,1111122 
DISL,ioos:station:DISL:MHPA:1,2009-08-04T22:00:00Z,30.6671,-87.9365,3.77,0.44,1111122 
DISL,ioos:station:DISL:MHPA:1,2009-08-04T22:30:00Z,30.6671,-87.9365,3.602,0.46,1111122 
DISL,ioos:station:DISL:MHPA:1,2009-08-04T23:00:00Z,30.6671,-87.9365,3.233,0.54,1111122 
DISL,ioos:station:DISL:MHPA:1,2009-08-04T23:30:00Z,30.6671,-87.9365,3.125,0.53,1111122 
DISL,ioos:station:DISL:MHPA:1,2009-08-05T00:00:00Z,30.6671,-87.9365,3.102,0.55,1111122 
DISL,ioos:station:DISL:MHPA:1,2009-08-05T00:30:00Z,30.6671,-87.9365,2.977,0.64,1111122 
DISL,ioos:station:DISL:MHPA:1,2009-08-05T01:00:00Z,30.6671,-87.9365,3.072,0.67,1111122 
DISL,ioos:station:DISL:MHPA:1,2009-08-05T01:30:00Z,30.6671,-87.9365,3.002,0.64,1111122 
DISL,ioos:station:DISL:MHPA:1,2009-08-05T02:00:00Z,30.6671,-87.9365,2.808,0.61,1111122 
DISL,ioos:station:DISL:MHPA:1,2009-08-05T02:30:00Z,30.6671,-87.9365,2.735,0.65,1111122 
DISL,ioos:station:DISL:MHPA:1,2009-08-05T03:00:00Z,30.6671,-87.9365,2.678,0.65,1111122 
DISL,ioos:station:DISL:MHPA:1,2009-08-05T03:30:00Z,30.6671,-87.9365,2.606,0.66,1111122 
DISL,ioos:station:DISL:MHPA:1,2009-08-05T04:00:00Z,30.6671,-87.9365,2.612,0.67,1111122 
DISL,ioos:station:DISL:MHPA:1,2009-08-05T04:30:00Z,30.6671,-87.9365,2.705,0.67,1111122 
DISL,ioos:station:DISL:MHPA:1,2009-08-05T05:00:00Z,30.6671,-87.9365,2.729,0.67,1111122 
DISL,ioos:station:DISL:MHPA:1,2009-08-05T05:30:00Z,30.6671,-87.9365,2.806,0.67,1111122 
DISL,ioos:station:DISL:MHPA:1,2009-08-05T06:00:00Z,30.6671,-87.9365,2.902,0.65,1111122 
DISL,ioos:station:DISL:MHPA:1,2009-08-05T06:30:00Z,30.6671,-87.9365,2.959,0.66,1111122 
DISL,ioos:station:DISL:MHPA:1,2009-08-05T07:00:00Z,30.6671,-87.9365,3.097,0.65,1111122 
DISL,ioos:station:DISL:MHPA:1,2009-08-05T07:30:00Z,30.6671,-87.9365,3.173,0.66,1111122 
DISL,ioos:station:DISL:MHPA:1,2009-08-05T08:00:00Z,30.6671,-87.9365,3.239,0.64,1111122 
DISL,ioos:station:DISL:MHPA:1,2009-08-05T08:30:00Z,30.6671,-87.9365,3.413,0.63,1111122 
DISL,ioos:station:DISL:MHPA:1,2009-08-05T09:00:00Z,30.6671,-87.9365,3.496,0.62,1111122 
DISL,ioos:station:DISL:MHPA:1,2009-08-05T09:30:00Z,30.6671,-87.9365,3.512,0.63,1111122 
DISL,ioos:station:DISL:MHPA:1,2009-08-05T10:00:00Z,30.6671,-87.9365,3.649,0.65,1111122 
DISL,ioos:station:DISL:MHPA:1,2009-08-05T10:30:00Z,30.6671,-87.9365,3.755,0.66,1111122 
DISL,ioos:station:DISL:MHPA:1,2009-08-05T11:00:00Z,30.6671,-87.9365,3.858,0.66,1111122 
DISL,ioos:station:DISL:MHPA:1,2009-08-05T11:30:00Z,30.6671,-87.9365,3.924,0.67,1111122 
DISL,ioos:station:DISL:MHPA:1,2009-08-05T12:00:00Z,30.6671,-87.9365,3.946,0.66,1111122 
DISL,ioos:station:DISL:MHPA:1,2009-08-05T12:30:00Z,30.6671,-87.9365,4.048,0.67,1111122 
DISL,ioos:station:DISL:MHPA:1,2009-08-05T13:00:00Z,30.6671,-87.9365,4.262,0.71,1111122 
DISL,ioos:station:DISL:MHPA:1,2009-08-05T13:30:00Z,30.6671,-87.9365,4.153,0.68,1111122 
DISL,ioos:station:DISL:MHPA:1,2009-08-05T14:00:00Z,30.6671,-87.9365,4.224,0.63,1111122 
DISL,ioos:station:DISL:MHPA:1,2009-08-05T14:30:00Z,30.6671,-87.9365,4.344,0.61,1111122 
DISL,ioos:station:DISL:MHPA:1,2009-08-05T15:00:00Z,30.6671,-87.9365,4.237,0.59,1111122 
DISL,ioos:station:DISL:MHPA:1,2009-08-05T15:30:00Z,30.6671,-87.9365,4.443,0.57,1111122 
DISL,ioos:station:DISL:MHPA:1,2009-08-05T16:00:00Z,30.6671,-87.9365,4.514,0.57,1111122 
DISL,ioos:station:DISL:MHPA:1,2009-08-05T16:30:00Z,30.6671,-87.9365,4.647,0.59,1111122 
DISL,ioos:station:DISL:MHPA:1,2009-08-05T17:00:00Z,30.6671,-87.9365,4.592,0.57,1111122 
DISL,ioos:station:DISL:MHPA:1,2009-08-05T17:30:00Z,30.6671,-87.9365,4.375,0.62,1111122 
DISL,ioos:station:DISL:MHPA:1,2009-08-05T18:00:00Z,30.6671,-87.9365,4.378,0.63,1111122 
DISL,ioos:station:DISL:MHPA:1,2009-08-05T18:30:00Z,30.6671,-87.9365,4.394,0.56,1111122 
DISL,ioos:station:DISL:MHPA:1,2009-08-05T19:00:00Z,30.6671,-87.9365,4.333,0.6,1111122 
DISL,ioos:station:DISL:MHPA:1,2009-08-05T19:30:00Z,30.6671,-87.9365,4.387,0.59,1111122 
DISL,ioos:station:DISL:MHPA:1,2009-08-05T20:00:00Z,30.6671,-87.9365,4.369,0.58,1111122 
DISL,ioos:station:DISL:MHPA:1,2009-08-05T20:30:00Z,30.6671,-87.9365,4.129,0.57,1111122 
DISL,ioos:station:DISL:MHPA:1,2009-08-05T21:00:00Z,30.6671,-87.9365,4.129,0.57,1111122 
DISL,ioos:station:DISL:MHPA:1,2009-08-05T21:30:00Z,30.6671,-87.9365,4.129,0.57,1111122 
DISL,ioos:station:DISL:MHPA:1,2009-08-05T22:00:00Z,30.6671,-87.9365,4.129,0.57,1111122 
DISL,ioos:station:DISL:MHPA:1,2009-08-05T22:30:00Z,30.6671,-87.9365,4.129,0.57,1111122 
DISL,ioos:station:DISL:MHPA:1,2009-08-05T23:00:00Z,30.6671,-87.9365,4.129,0.57,1111122 
DISL,ioos:station:DISL:MHPA:1,2009-08-05T23:30:00Z,30.6671,-87.9365,4.129,0.57,1111122 
DISL,ioos:station:DISL:MHPA:1,2009-08-06T00:00:00Z,30.6671,-87.9365,4.129,0.57,1111122 
DISL,ioos:station:DISL:MHPA:1,2009-08-06T00:30:00Z,30.6671,-87.9365,4.129,0.57,1111122 
DISL,ioos:station:DISL:MHPA:1,2009-08-06T01:00:00Z,30.6671,-87.9365,4.129,0.57,1111122 
DISL,ioos:station:DISL:MHPA:1,2009-08-06T01:30:00Z,30.6671,-87.9365,4.129,0.57,1111122 
DISL,ioos:station:DISL:MHPA:1,2009-08-06T02:00:00Z,30.6671,-87.9365,4.129,0.57,1111122 
DISL,ioos:station:DISL:MHPA:1,2009-08-06T02:30:00Z,30.6671,-87.9365,4.129,0.57,1111122 
DISL,ioos:station:DISL:MHPA:1,2009-08-06T03:00:00Z,30.6671,-87.9365,4.129,0.57,1111122 
DISL,ioos:station:DISL:MHPA:1,2009-08-06T03:30:00Z,30.6671,-87.9365,4.129,0.57,1111122 
DISL,ioos:station:DISL:MHPA:1,2009-08-06T04:00:00Z,30.6671,-87.9365,4.129,0.57,1111122 
DISL,ioos:station:DISL:MHPA:1,2009-08-06T04:30:00Z,30.6671,-87.9365,4.129,0.57,1111122 
DISL,ioos:station:DISL:MHPA:1,2009-08-06T05:00:00Z,30.6671,-87.9365,4.129,0.57,1111122 
DISL,ioos:station:DISL:MHPA:1,2009-08-06T05:30:00Z,30.6671,-87.9365,4.129,0.57,1111122 
DISL,ioos:station:DISL:MHPA:1,2009-08-06T06:00:00Z,30.6671,-87.9365,4.129,0.57,1111122 
DISL,ioos:station:DISL:MHPA:1,2009-08-06T06:30:00Z,30.6671,-87.9365,4.129,0.57,1111122 
DISL,ioos:station:DISL:MHPA:1,2009-08-06T07:00:00Z,30.6671,-87.9365,4.129,0.57,1111122 
DISL,ioos:station:DISL:MHPA:1,2009-08-06T07:30:00Z,30.6671,-87.9365,4.129,0.57,1111122 
DISL,ioos:station:DISL:MHPA:1,2009-08-06T08:00:00Z,30.6671,-87.9365,4.129,0.57,1111122 
DISL,ioos:station:DISL:MHPA:1,2009-08-06T08:30:00Z,30.6671,-87.9365,4.129,0.57,1111122 
DISL,ioos:station:DISL:MHPA:1,2009-08-06T09:00:00Z,30.6671,-87.9365,4.129,0.57,1111122 
DISL,ioos:station:DISL:MHPA:1,2009-08-06T09:30:00Z,30.6671,-87.9365,4.129,0.57,1111122 
DISL,ioos:station:DISL:MHPA:1,2009-08-06T10:00:00Z,30.6671,-87.9365,4.129,0.57,1111122 
DISL,ioos:station:DISL:MHPA:1,2009-08-06T10:30:00Z,30.6671,-87.9365,4.129,0.57,1111122 
DISL,ioos:station:DISL:MHPA:1,2009-08-06T11:00:00Z,30.6671,-87.9365,4.129,0.57,1111122 
DISL,ioos:station:DISL:MHPA:1,2009-08-06T11:30:00Z,30.6671,-87.9365,4.129,0.57,1111122 
DISL,ioos:station:DISL:MHPA:1,2009-08-06T12:00:00Z,30.6671,-87.9365,4.129,0.57,1111122 
DISL,ioos:station:DISL:MHPA:1,2009-08-06T12:30:00Z,30.6671,-87.9365,4.129,0.57,1111122 
DISL,ioos:station:DISL:MHPA:1,2009-08-06T13:00:00Z,30.6671,-87.9365,4.129,0.57,1111122 
DISL,ioos:station:DISL:MHPA:1,2009-08-06T13:30:00Z,30.6671,-87.9365,4.129,0.57,1111122 
DISL,ioos:station:DISL:MHPA:1,2009-08-06T14:00:00Z,30.6671,-87.9365,4.129,0.57,1111122 
DISL,ioos:station:DISL:MHPA:1,2009-08-06T14:30:00Z,30.6671,-87.9365,4.129,0.57,1111122 
DISL,ioos:station:DISL:MHPA:1,2009-08-06T15:00:00Z,30.6671,-87.9365,4.129,0.57,1111122 
DISL,ioos:station:DISL:MHPA:1,2009-08-06T15:30:00Z,30.6671,-87.9365,4.129,0.57,1111122 